When you browse on this site, cookies collect data to enhance your experience and personalize the content and advertising you see.
Visit our Privacy Policy to learn more. By continuing to use the site, you agree to this use of cookies and data.
  • In Norway
  • List of Countries
  • For 7 days
  • Water Temperature
  • Satellite Maps
  • Weather Map
  • Weather Widgets
  • user-avatar
    Login

    Hourly Weather Kaprun

    Today, 25 June, Tuesday

    Time Temperature Precipitation Wind Pressure Humidity
    00:00 +9°C° 0 mm 2 mps 603 mmHg 85%
    01:00 +9°C° 0 mm 2 mps 603 mmHg 84%
    02:00 +9°C° 0 mm 2 mps 603 mmHg 83%
    03:00 +9°C° 0 mm 2 mps 602 mmHg 81%
    04:00 +10°C° 0 mm 1 mps 602 mmHg 79%
    05:00 +12°C° 0 mm 1 mps 603 mmHg 73%
    06:00 +14°C° 0 mm 1 mps 604 mmHg 67%
    07:00 +16°C° 0 mm 0 mps 606 mmHg 61%
    08:00 +17°C° 0 mm 0 mps 606 mmHg 54%
    09:00 +19°C° 0 mm 0 mps 607 mmHg 47%
    10:00 +23°C° 0 mm 1 mps 608 mmHg 41%
    11:00 +24°C° 0 mm 1 mps 608 mmHg 38%
    12:00 +25°C° 0 mm 1 mps 609 mmHg 36%
    13:00 +26°C° 0 mm 2 mps 609 mmHg 34%
    14:00 +25°C° 0 mm 2 mps 609 mmHg 35%
    15:00 +25°C° 0 mm 2 mps 609 mmHg 35%
    16:00 +25°C° 0 mm 3 mps 609 mmHg 36%
    17:00 +23°C° 0 mm 2 mps 608 mmHg 48%
    18:00 +21°C° 0 mm 1 mps 607 mmHg 59%
    19:00 +20°C° 0 mm 1 mps 607 mmHg 70%
    20:00 +18°C° 0 mm 1 mps 606 mmHg 72%
    21:00 +15°C° 0 mm 1 mps 606 mmHg 73%
    22:00 +13°C° 0 mm 1 mps 606 mmHg 75%
    23:00 +13°C° 0 mm 1 mps 605 mmHg 71%

    Tomorrow, 26 June, Wednesday

    Time Temperature Precipitation Wind Pressure Humidity
    00:00 +13°C° 0 mm 1 mps 605 mmHg 67%
    01:00 +13°C° 0 mm 1 mps 605 mmHg 63%
    02:00 +13°C° 0 mm 1 mps 605 mmHg 60%
    03:00 +13°C° 0 mm 1 mps 605 mmHg 57%
    04:00 +13°C° 0 mm 1 mps 605 mmHg 54%
    05:00 +15°C° 0 mm 1 mps 606 mmHg 52%
    06:00 +18°C° 0 mm 1 mps 608 mmHg 50%
    07:00 +21°C° 0 mm 1 mps 609 mmHg 49%
    08:00 +22°C° 0 mm 1 mps 609 mmHg 43%
    09:00 +24°C° 0 mm 2 mps 610 mmHg 37%
    10:00 +25°C° 0 mm 2 mps 610 mmHg 31%
    11:00 +26°C° 0 mm 2 mps 610 mmHg 29%
    12:00 +26°C° 0 mm 2 mps 611 mmHg 28%
    13:00 +27°C° 0 mm 3 mps 611 mmHg 27%
    14:00 +27°C° 0 mm 3 mps 610 mmHg 28%
    15:00 +26°C° 0 mm 3 mps 610 mmHg 30%
    16:00 +26°C° 0 mm 3 mps 610 mmHg 32%
    17:00 +24°C° 0 mm 2 mps 609 mmHg 44%
    18:00 +21°C° 0 mm 2 mps 608 mmHg 55%
    19:00 +21°C° 0 mm 1 mps 607 mmHg 67%
    20:00 +19°C° 0 mm 1 mps 607 mmHg 69%
    21:00 +16°C° 0 mm 1 mps 606 mmHg 71%
    22:00 +14°C° 0 mm 1 mps 606 mmHg 73%
    23:00 +14°C° 0 mm 1 mps 606 mmHg 72%

    Day after tomorrow, 27 June, Thursday

    Time Temperature Precipitation Wind Pressure Humidity
    00:00 +14°C° 0 mm 1 mps 605 mmHg 70%
    01:00 +13°C° 0 mm 1 mps 605 mmHg 69%
    02:00 +13°C° 0 mm 1 mps 605 mmHg 68%
    03:00 +13°C° 0 mm 1 mps 605 mmHg 68%
    04:00 +13°C° 0 mm 1 mps 604 mmHg 67%
    05:00 +15°C° 0 mm 1 mps 605 mmHg 64%
    06:00 +18°C° 0 mm 1 mps 606 mmHg 61%
    07:00 +20°C° 0 mm 1 mps 607 mmHg 57%
    08:00 +20°C° 0 mm 2 mps 607 mmHg 51%
    09:00 +23°C° 0 mm 2 mps 608 mmHg 46%
    10:00 +24°C° 0 mm 2 mps 608 mmHg 40%
    11:00 +24°C° 0.2 mm 3 mps 608 mmHg 44%
    12:00 +24°C° 0.2 mm 3 mps 608 mmHg 48%
    13:00 +22°C° 0.2 mm 4 mps 607 mmHg 52%
    14:00 +22°C° 0.7 mm 3 mps 607 mmHg 55%
    15:00 +21°C° 0.7 mm 3 mps 606 mmHg 59%
    16:00 +20°C° 0.7 mm 2 mps 606 mmHg 62%
    17:00 +19°C° 0.4 mm 2 mps 605 mmHg 69%
    18:00 +18°C° 0.4 mm 2 mps 605 mmHg 76%
    19:00 +17°C° 0.4 mm 2 mps 604 mmHg 82%
    20:00 +15°C° 0 mm 2 mps 604 mmHg 86%
    21:00 +13°C° 0 mm 2 mps 603 mmHg 89%
    22:00 +12°C° 0 mm 1 mps 603 mmHg 93%
    23:00 +11°C° 0 mm 1 mps 603 mmHg 93%

    28 June, Friday

    Time Temperature Precipitation Wind Pressure Humidity
    00:00 +11°C° 0 mm 1 mps 603 mmHg 93%
    01:00 +10°C° 0 mm 2 mps 603 mmHg 93%
    02:00 +11°C° 0 mm 1 mps 603 mmHg 94%
    03:00 +10°C° 0 mm 1 mps 602 mmHg 94%
    04:00 +10°C° 0 mm 1 mps 602 mmHg 95%
    05:00 +12°C° 0 mm 2 mps 603 mmHg 93%
    06:00 +13°C° 0 mm 2 mps 603 mmHg 91%
    07:00 +14°C° 0 mm 2 mps 604 mmHg 89%
    08:00 +15°C° 0 mm 2 mps 604 mmHg 78%
    09:00 +17°C° 0 mm 2 mps 605 mmHg 68%
    10:00 +18°C° 0 mm 2 mps 605 mmHg 58%
    11:00 +19°C° 0 mm 3 mps 605 mmHg 52%
    12:00 +19°C° 0 mm 3 mps 605 mmHg 47%
    13:00 +20°C° 0 mm 3 mps 605 mmHg 41%
    14:00 +20°C° 0 mm 3 mps 605 mmHg 42%
    15:00 +20°C° 0 mm 3 mps 605 mmHg 43%
    16:00 +19°C° 0 mm 3 mps 605 mmHg 43%
    17:00 +18°C° 0 mm 3 mps 604 mmHg 52%
    18:00 +16°C° 0 mm 2 mps 604 mmHg 61%
    19:00 +15°C° 0 mm 2 mps 603 mmHg 70%
    20:00 +13°C° 0 mm 2 mps 602 mmHg 76%
    21:00 +10°C° 0 mm 2 mps 602 mmHg 82%
    22:00 +9°C° 0 mm 1 mps 601 mmHg 88%
    23:00 +9°C° 0 mm 1 mps 601 mmHg 85%

    29 June, Saturday

    Time Temperature Precipitation Wind Pressure Humidity
    00:00 +8°C° 0 mm 1 mps 601 mmHg 83%
    01:00 +8°C° 0 mm 1 mps 601 mmHg 81%
    02:00 +8°C° 0 mm 1 mps 600 mmHg 78%
    03:00 +7°C° 0 mm 1 mps 600 mmHg 76%
    04:00 +7°C° 0 mm 1 mps 600 mmHg 74%
    05:00 +9°C° 0 mm 1 mps 601 mmHg 67%
    06:00 +12°C° 0 mm 1 mps 602 mmHg 61%
    07:00 +14°C° 0 mm 1 mps 603 mmHg 55%
    08:00 +16°C° 0 mm 1 mps 604 mmHg 49%
    09:00 +17°C° 0 mm 2 mps 604 mmHg 43%
    10:00 +19°C° 0 mm 2 mps 605 mmHg 37%
    11:00 +20°C° 0 mm 2 mps 605 mmHg 35%
    12:00 +20°C° 0 mm 2 mps 605 mmHg 32%
    13:00 +21°C° 0 mm 2 mps 605 mmHg 30%
    14:00 +21°C° 0 mm 2 mps 605 mmHg 31%
    15:00 +21°C° 0 mm 2 mps 605 mmHg 32%
    16:00 +21°C° 0 mm 2 mps 605 mmHg 33%
    17:00 +19°C° 0 mm 2 mps 604 mmHg 46%
    18:00 +18°C° 0 mm 2 mps 604 mmHg 58%
    19:00 +16°C° 0 mm 1 mps 603 mmHg 71%
    20:00 +14°C° 0 mm 1 mps 602 mmHg 76%
    21:00 +12°C° 0 mm 1 mps 602 mmHg 80%
    22:00 +9°C° 0 mm 1 mps 601 mmHg 85%
    23:00 +9°C° 0 mm 1 mps 601 mmHg 82%

    30 June, Sunday

    Time Temperature Precipitation Wind Pressure Humidity
    00:00 +9°C° 0 mm 1 mps 601 mmHg 80%
    01:00 +9°C° 0 mm 1 mps 601 mmHg 77%
    02:00 +10°C° 0 mm 1 mps 601 mmHg 78%
    03:00 +9°C° 0 mm 2 mps 601 mmHg 79%
    04:00 +9°C° 0 mm 2 mps 601 mmHg 81%
    05:00 +12°C° 0 mm 1 mps 602 mmHg 74%
    06:00 +14°C° 0 mm 1 mps 603 mmHg 67%
    07:00 +16°C° 0 mm 1 mps 603 mmHg 60%
    08:00 +19°C° 0 mm 1 mps 604 mmHg 50%
    09:00 +21°C° 0 mm 1 mps 605 mmHg 41%
    10:00 +23°C° 0 mm 1 mps 606 mmHg 31%
    11:00 +24°C° 0 mm 1 mps 606 mmHg 30%
    12:00 +24°C° 0 mm 1 mps 606 mmHg 29%
    13:00 +25°C° 0 mm 2 mps 606 mmHg 28%
    14:00 +25°C° 0 mm 2 mps 605 mmHg 31%
    15:00 +24°C° 0 mm 2 mps 605 mmHg 34%
    16:00 +24°C° 0 mm 2 mps 605 mmHg 37%
    17:00 +23°C° 0.1 mm 2 mps 604 mmHg 48%
    18:00 +21°C° 0.1 mm 1 mps 604 mmHg 59%
    19:00 +19°C° 0.1 mm 1 mps 603 mmHg 70%
    20:00 +16°C° 0.1 mm 1 mps 603 mmHg 74%
    21:00 +14°C° 0.1 mm 1 mps 602 mmHg 79%
    22:00 +12°C° 0.1 mm 1 mps 601 mmHg 84%
    23:00 +12°C° 0 mm 1 mps 601 mmHg 84%
    Show more